This is the latest recevied weather packets stored in our database for station/object KC7UNY-13. If no packets are shown the sender has not sent any weather packets the latest 10 day(s).
| Time | Temp. | Humidity | Pressure | Rain* | Wind** | Luminosity | Snow |
|---|---|---|---|---|---|---|---|
| 1777572452 | 28.89° C | 19% | 1009.5 hPa | 0 mm | - | 739 W/m² | - |
| 1777572150 | 30° C | 18% | 1009.5 hPa | 0 mm | - | 733 W/m² | - |
| 1777571845 | 30° C | 18% | 1009.5 hPa | 0 mm | - | 724 W/m² | - |
| 1777571541 | 30° C | 18% | 1009.7 hPa | 0 mm | - | 714 W/m² | - |
| 1777571238 | 30° C | 18% | 1009.9 hPa | 0 mm | - | 704 W/m² | - |
| 1777570934 | 29.44° C | 18% | 1009.8 hPa | 0 mm | - | 697 W/m² | - |
| 1777570629 | 30° C | 18% | 1009.9 hPa | 0 mm | - | 686 W/m² | - |
| 1777570327 | 29.44° C | 18% | 1010 hPa | 0 mm | - | 676 W/m² | - |
| 1777570021 | 30° C | 18% | 1010 hPa | 0 mm | - | 667 W/m² | - |
| 1777569718 | 29.44° C | 17% | 1010 hPa | 0 mm | - | 654 W/m² | - |
| 1777569413 | 28.89° C | 17% | 1010.1 hPa | 0 mm | - | 643 W/m² | - |
| 1777569105 | 28.89° C | 18% | 1010.3 hPa | 0 mm | - | 628 W/m² | - |
| 1777568802 | 28.89° C | 18% | 1010.2 hPa | 0 mm | - | 620 W/m² | - |
| 1777568500 | 30° C | 17% | 1010.3 hPa | 0 mm | - | 606 W/m² | - |
| 1777568196 | 30° C | 19% | 1010.2 hPa | 0 mm | - | 592 W/m² | - |
| 1777567893 | 28.89° C | 18% | 1010.2 hPa | 0 mm | - | 579 W/m² | - |
| 1777567589 | 28.89° C | 19% | 1010.3 hPa | 0 mm | - | 566 W/m² | - |
| 1777567286 | 28.89° C | 18% | 1010.3 hPa | 0 mm | - | 550 W/m² | - |
| 1777566985 | 28.89° C | 20% | 1010.4 hPa | 0 mm | - | 535 W/m² | - |
| 1777566682 | 28.33° C | 18% | 1010.2 hPa | 0 mm | - | 521 W/m² | - |
| 1777566380 | 28.33° C | 18% | 1010.1 hPa | 0 mm | - | 506 W/m² | - |
| 1777566076 | 28.33° C | 19% | 1010.2 hPa | 0 mm | - | 492 W/m² | - |
| 1777565772 | 28.33° C | 20% | 1010.2 hPa | 0 mm | - | 475 W/m² | - |
| 1777565469 | 26.67° C | 22% | 1010.2 hPa | 0 mm | - | 457 W/m² | - |
| 1777565165 | 26.67° C | 24% | 1010.3 hPa | 0 mm | - | 442 W/m² | - |
* Rain latest hour (hover to see other rain measurements)
** Current wind speed in m/s (hover to see current wind gust speed)